Date String (YYYY-MM-DD hh:mm:ss) UTC,Instrument flags,absolute air pressure of the measurement (hPa),sample flow rate (lpm),inlet stack bypass flow (lpm),air temperature of the measurement (°C),ambient temperature measured by the external sensor (°C),aerosol sample conditioner tube jacket temperature (°C),OPC LED temperature (°C),internal box temperature (°C),relative humidity of the measurement (%),span deviation,mass concentration of particles derived from Lorenz-Mie calculation of OPC scattering (μg/m³),mass concentration of particles derived from Lorenz-Mie calculation of OPC scattering (μg/m³),mass concentration of particles derived from Lorenz-Mie calculation of OPC scattering (μg/m³)
DateTimeUTC,F1_M11,P_M11,Q1_M11,Q2_M11,T1_M11,T2_M11,T3_M11,T4_M11,T5_M11,U1_M11,ZSPAN_M11,X0_M11,X2_M11,X1_M11
2024-05-30 09:00:00,SystemResetWarning,0828.1,4.99,000.00,031.3,030.5,000.0,039.7,033.0,014.6,0000.0,0011.78,0003.47,0002.23
2024-05-30 09:01:00,SystemResetWarning,0828.1,4.99,000.00,031.3,030.5,000.0,039.7,033.0,014.6,0000.0,0011.17,0003.47,0002.21
2024-05-30 09:02:00,SystemResetWarning,0828.1,5.01,000.00,031.3,030.5,000.0,039.7,033.0,014.6,0000.0,0010.84,0003.45,0002.21
2024-05-30 09:03:00,SystemResetWarning,0828.2,5.01,000.00,031.3,030.5,000.0,039.7,033.0,014.5,0000.0,0010.57,0003.47,0002.23
2024-05-30 09:04:00,SystemResetWarning,0828.2,5.00,000.00,031.3,030.5,000.0,039.7,033.0,014.6,0000.0,0010.08,0003.45,0002.23
2024-05-30 09:05:00,SystemResetWarning,0828.2,5.00,000.00,031.3,030.5,000.0,039.7,033.0,014.6,0000.0,0010.09,0003.50,0002.24
2024-05-30 09:06:00,SystemResetWarning,0828.2,5.00,000.00,031.3,030.5,000.0,039.7,033.0,014.5,0000.0,0009.91,0003.52,0002.25
2024-05-30 09:07:00,SystemResetWarning,0828.2,5.00,000.00,031.3,030.5,000.0,039.7,033.0,014.5,0000.0,0009.36,0003.50,0002.26
2024-05-30 09:08:00,SystemResetWarning,0828.2,5.01,000.00,031.3,030.5,000.0,039.7,033.0,014.4,0000.0,0009.58,0003.51,0002.31
2024-05-30 09:09:00,SystemResetWarning,0828.2,5.00,000.00,031.3,030.5,000.0,039.7,033.0,014.3,0000.0,0009.30,0003.51,0002.36
2024-05-30 09:10:00,SystemResetWarning,0828.2,5.00,000.00,031.3,030.5,000.0,039.7,033.0,014.2,0000.0,0008.32,0003.58,0002.38
2024-05-30 09:11:00,SystemResetWarning,0828.2,5.00,000.00,031.3,030.5,000.0,039.7,033.0,014.5,0000.0,0008.22,0003.58,0002.39
2024-05-30 09:12:00,SystemResetWarning,0828.2,5.00,000.00,031.3,030.5,000.0,039.7,033.0,014.7,0000.0,0008.08,0003.61,0002.43
2024-05-30 09:13:00,SystemResetWarning,0828.2,5.00,000.00,031.3,030.5,000.0,039.7,033.0,014.8,0000.0,0008.41,0003.66,0002.48
2024-05-30 09:14:00,SystemResetWarning,0828.1,5.00,000.00,031.3,030.4,000.0,039.7,033.0,015.1,0000.0,0009.46,0003.69,0002.52
2024-05-30 09:15:00,SystemResetWarning,0828.2,5.00,000.00,031.3,030.4,000.0,039.7,032.9,015.2,0000.0,0010.14,0003.69,0002.55
2024-05-30 09:16:00,SystemResetWarning,0828.2,5.01,000.00,031.3,030.4,000.0,039.7,032.9,015.1,0000.0,0010.58,0003.68,0002.59
2024-05-30 09:17:00,SystemResetWarning,0828.2,5.00,000.00,031.3,030.4,000.0,039.7,032.9,015.0,0000.0,0011.34,0003.75,0002.64
2024-05-30 09:18:00,SystemResetWarning,0828.2,5.00,000.00,031.2,030.4,000.0,039.7,032.9,014.7,0000.0,0011.53,0003.77,0002.67
2024-05-30 09:19:00,SystemResetWarning,0828.2,5.00,000.00,031.2,030.4,000.0,039.7,032.9,014.7,0000.0,0011.81,0003.78,0002.66
2024-05-30 09:20:00,SystemResetWarning,0828.2,5.00,000.00,031.2,030.4,000.0,039.7,032.9,014.7,0000.0,0012.97,0003.76,0002.65
2024-05-30 09:21:00,SystemResetWarning,0828.2,5.00,000.00,031.2,030.4,000.0,039.7,032.9,014.5,0000.0,0013.59,0003.73,0002.66
2024-05-30 09:22:00,SystemResetWarning,0828.3,5.00,000.00,031.2,030.4,000.0,039.7,032.9,014.9,0000.0,0013.52,0003.73,0002.67
2024-05-30 09:23:00,SystemResetWarning,0828.3,5.00,000.00,031.2,030.4,000.0,039.7,032.9,015.0,0000.0,0013.50,0003.73,0002.66
2024-05-30 09:24:00,SystemResetWarning,0828.3,5.00,000.00,031.2,030.4,000.0,039.7,032.9,014.8,0000.0,0013.67,0003.74,0002.66
2024-05-30 09:25:00,SystemResetWarning,0828.3,5.00,000.00,031.2,030.3,000.0,039.7,032.9,014.7,0000.0,0012.89,0003.77,0002.65
2024-05-30 09:26:00,SystemResetWarning,0828.3,5.00,000.00,031.2,030.3,000.0,039.7,032.9,014.9,0000.0,0012.62,0003.82,0002.64
2024-05-30 09:27:00,SystemResetWarning,0828.3,4.99,000.00,031.2,030.3,000.0,039.6,032.9,015.0,0000.0,0012.53,0003.84,0002.64
2024-05-30 09:28:00,SystemResetWarning,0828.3,5.00,000.00,031.2,030.3,000.0,039.6,032.8,015.1,0000.0,0011.81,0003.75,0002.63
2024-05-30 09:29:00,SystemResetWarning,0828.3,5.00,000.00,031.1,030.3,000.0,039.6,032.8,015.1,0000.0,0011.70,0003.72,0002.61
2024-05-30 09:30:00,SystemResetWarning,0828.4,4.99,000.00,031.1,030.3,000.0,039.6,032.8,015.2,0000.0,0012.07,0003.72,0002.59
2024-05-30 09:31:00,SystemResetWarning,0828.4,5.00,000.00,031.1,030.2,000.0,039.6,032.8,015.1,0000.0,0013.25,0003.74,0002.59
2024-05-30 09:32:00,SystemResetWarning,0828.4,5.00,000.00,031.1,030.2,000.0,039.6,032.8,015.1,0000.0,0012.34,0003.71,0002.59
2024-05-30 09:33:00,SystemResetWarning,0828.4,5.00,000.00,031.1,030.2,000.0,039.6,032.8,015.1,0000.0,0012.31,0003.73,0002.62
2024-05-30 09:34:00,SystemResetWarning,0828.4,5.01,000.00,031.1,030.2,000.0,039.6,032.8,015.1,0000.0,0012.38,0003.77,0002.61
2024-05-30 09:35:00,SystemResetWarning,0828.5,5.00,000.00,031.1,030.2,000.0,039.6,032.7,015.2,0000.0,0012.79,0003.79,0002.61
2024-05-30 09:36:00,SystemResetWarning,0828.5,5.00,000.00,031.1,030.2,000.0,039.6,032.7,015.1,0000.0,0013.65,0003.77,0002.61
2024-05-30 09:37:00,SystemResetWarning,0828.5,4.99,000.00,031.0,030.1,000.0,039.6,032.7,015.0,0000.0,0013.99,0003.72,0002.60
2024-05-30 09:38:00,SystemResetWarning,0828.5,4.99,000.00,031.0,030.1,000.0,039.6,032.7,015.0,0000.0,0013.61,0003.68,0002.59
2024-05-30 09:39:00,SystemResetWarning,0828.5,5.00,000.00,031.0,030.1,000.0,039.6,032.6,015.0,0000.0,0013.60,0003.66,0002.56
2024-05-30 09:40:00,SystemResetWarning,0828.6,5.00,000.00,031.0,030.0,000.0,039.5,032.6,014.9,0000.0,0013.46,0003.65,0002.56
2024-05-30 09:41:00,SystemResetWarning,0828.5,5.00,000.00,031.0,030.0,000.0,039.5,032.6,014.9,0000.0,0012.72,0003.67,0002.57
2024-05-30 09:42:00,SystemResetWarning,0828.5,5.00,000.00,030.9,030.0,000.0,039.5,032.6,014.8,0000.0,0010.60,0003.66,0002.56
2024-05-30 09:43:00,SystemResetWarning,0828.6,5.01,000.00,030.9,030.0,000.0,039.5,032.6,014.8,0000.0,0010.91,0003.66,0002.54
2024-05-30 09:44:00,SystemResetWarning,0828.6,5.00,000.00,030.9,029.9,000.0,039.5,032.6,014.7,0000.0,0011.76,0003.66,0002.53
2024-05-30 09:45:00,SystemResetWarning,0828.6,5.01,000.00,030.9,029.9,000.0,039.5,032.5,014.8,0000.0,0011.91,0003.63,0002.54
2024-05-30 09:46:00,SystemResetWarning,0828.6,5.00,000.00,030.9,029.9,000.0,039.5,032.5,014.8,0000.0,0011.97,0003.60,0002.55
2024-05-30 09:47:00,SystemResetWarning,0828.6,5.00,000.00,030.9,029.9,000.0,039.5,032.5,014.6,0000.0,0011.14,0003.59,0002.54
2024-05-30 09:48:00,SystemResetWarning,0828.7,5.00,000.00,030.8,029.9,000.0,039.4,032.5,014.7,0000.0,0011.29,0003.60,0002.55
2024-05-30 09:49:00,SystemResetWarning,0828.6,5.00,000.00,030.8,029.9,000.0,039.4,032.5,014.7,0000.0,0011.62,0003.64,0002.56
2024-05-30 09:50:00,SystemResetWarning,0828.7,5.00,000.00,030.8,029.8,000.0,039.4,032.5,014.6,0000.0,0011.54,0003.66,0002.56
2024-05-30 09:51:00,SystemResetWarning,0828.7,5.00,000.00,030.8,029.8,000.0,039.4,032.5,014.7,0000.0,0011.88,0003.67,0002.58
2024-05-30 09:52:00,SystemResetWarning,0828.7,4.99,000.00,030.8,029.8,000.0,039.4,032.5,014.7,0000.0,0012.89,0003.68,0002.58
2024-05-30 09:53:00,SystemResetWarning,0828.7,4.99,000.00,030.8,029.8,000.0,039.4,032.4,014.7,0000.0,0013.20,0003.68,0002.59
2024-05-30 09:54:00,SystemResetWarning,0828.7,5.00,000.00,030.8,029.8,000.0,039.4,032.4,014.7,0000.0,0012.91,0003.72,0002.61
2024-05-30 09:55:00,SystemResetWarning,0828.7,4.99,000.00,030.7,029.8,000.0,039.4,032.4,014.7,0000.0,0012.15,0003.70,0002.60
2024-05-30 09:56:00,SystemResetWarning,0828.7,5.00,000.00,030.7,029.8,000.0,039.4,032.4,014.8,0000.0,0011.49,0003.68,0002.60
2024-05-30 09:57:00,SystemResetWarning,0828.7,5.00,000.00,030.7,029.8,000.0,039.4,032.4,014.8,0000.0,0010.89,0003.64,0002.59
2024-05-30 09:58:00,SystemResetWarning,0828.7,5.00,000.00,030.7,029.8,000.0,039.3,032.4,014.9,0000.0,0010.70,0003.64,0002.61
2024-05-30 09:59:00,SystemResetWarning,0828.8,5.00,000.00,030.7,029.7,000.0,039.3,032.4,015.2,0000.0,0010.09,0003.63,0002.62
